Location: Chavannes
(47.1090°N, 0.2226°W)
Time: 03:40:31
(UTC+00:00)

CZ-4B R/B - Pass Details

Date: 16 October 2021
Orbit: 808 x 882 km, 99.1° (Epoch: 03 December)

Event Time Altitude Azimuth Distance (km) Brightness Sun altitude
Rises 18:32:57 0° 181° (S) 3,446 6.4 -14.6°
Reaches altitude 10° 18:35:25 10° 187° (S) 2,520 5.7 -15.0°
Maximum altitude 18:40:49 47° 260° (W) 1,148 4.4 -16.0°
Drops below altitude 10° 18:46:18 10° 335° (NNW) 2,552 6.1 -16.9°
Sets 18:48:49 0° 341° (NNW) 3,494 6.7 -17.3°
